Flag for U.S.A. Weather past 2 weeks in Sheboygan, Wisconsin, U.S.A.

Now
43 °F

Mostly cloudy.


Feels Like: 34 °F
Forecast: 29 / 43 °F
Wind: 23 mph from West

Location: Sheboygan County Memorial Airport

Current Time: Dec 27, 2014 at 12:45:44 PM

Latest Report: Dec 27, 2014 at 11:53 AM


Visibility: 10 mi

Pressure: 29.84 "Hg

Humidity: 82%

Dew point: 38 °F

Location of SheboyganLocation

Historic Weather in Sheboygan — Graph

°F

Sheboygan temperature yesterday

Maximum temperature yesterday: 47 °F (at 1:53 PM)
Minimum temperature yesterday: 31 °F (at 6:53 PM)
Average temperature yesterday: 37 °F

Past Weeks' High & Low Weather Summary

 TemperatureHumidityPressure
High48 °F (Dec 14, 10:53 AM)100% (Dec 15, 2:53 AM)30.34 "Hg (Dec 15, 2:53 AM)
Low20 °F (Dec 18, 9:53 PM)62% (Dec 17, 10:53 AM)29.48 "Hg (Dec 24, 2:53 PM)
Average35 °F85%30.00 "Hg
* Reported Dec 12 11:53 AM — Dec 27 11:53 AM, Sheboygan, Weather by CustomWeather, © 2014

Note: Actual official high and low records may vary slightly from our data, if they occured in-between our weather recording intervals... More about our weather records

Advertising

Sheboygan weather history for previous 24 hours

 ConditionsComfort  
Time TempWeatherWind HumidityBarometerVisibility
11:53 AM
Dec 27
43 °FMostly cloudy.23 mph82%29.84 "Hg10 mi
10:53 AM46 °FMostly cloudy.16 mph89%29.82 "Hg10 mi
9:53 AM46 °FFog.13 mph96%29.84 "Hg6 mi
9:02 AM43 °FFog.9 mph97%29.81 "Hg3 mi
8:53 AM43 °FFog.10 mph97%29.83 "Hg2 mi
7:53 AM40 °FFog.8 mph97%29.85 "Hg1 mi
6:53 AM38 °FFog.9 mph97%29.88 "Hg2 mi
5:53 AM36 °FFog.No wind97%29.90 "Hg2 mi
4:58 AM35 °FFog.5 mph96%29.89 "Hg1 mi
3:53 AM35 °FFog.No wind96%29.95 "Hg1 mi
2:53 AM34 °FFog.No wind100%29.97 "Hg0 mi
1:53 AM34 °FFog.No wind92%29.98 "Hg1 mi
1:01 AM34 °FFog.No wind100%29.98 "Hg0 mi
11:53 PM
Dec 26
34 °FFog.5 mph92%30.01 "Hg4 mi
10:53 PM35 °FFog.3 mph92%30.03 "Hg6 mi
9:53 PM35 °FFog.3 mph92%30.03 "Hg6 mi
8:53 PM32 °FPassing clouds.No wind92%30.04 "Hg8 mi
7:53 PM34 °FPassing clouds.No wind92%30.04 "Hg8 mi
6:53 PM31 °FPassing clouds.No wind96%30.04 "Hg9 mi
5:53 PM35 °FClear.No wind92%30.02 "Hg10 mi
4:53 PM38 °FClear.5 mph86%30.01 "Hg10 mi
3:53 PM41 °FSunny.7 mph80%29.99 "Hg10 mi
2:53 PM45 °FSunny.3 mph68%29.98 "Hg10 mi
1:53 PM47 °FPartly sunny.6 mph64%29.96 "Hg10 mi
12:53 PM45 °FPassing clouds.5 mph68%29.95 "Hg10 mi
Weather by CustomWeather, © 2014

See weather overviewHow to use our weather pages